Ashland, MO

11:43 AM CST on February 08, 2016 (GMT -0600)
Columbia Regional

Weather History for KCOU - April, 2012

Change the Weather History Date:

Friday, April 6, 2012

  Actual Average Record
Temperature  
Mean Temperature 50 °F 52 °F  
Max Temperature 63 °F 63 °F 89 °F (1893)
Min Temperature 37 °F 41 °F 21 °F (1898)
Degree Days  
Heating Degree Days 15 13  
Month to date heating degree days 33 85  
Since 1 July heating degree days 3582 4667  
Cooling Degree Days 0 0  
Month to date cooling degree days 22 0  
Year to date cooling degree days 70 3  
Moisture  
Dew Point 35 °F    
Average Humidity 56    
Maximum Humidity 76    
Minimum Humidity 36    
Precipitation  
Precipitation 0.03 in 0.13 in 3.15 in (1926)
Month to date precipitation 0.65 0.76  
Year to date precipitation 8.38 7.84  
Snow  
Snow 0.00 in 0.00 in 3.30 in (1971)
Month to date snowfall 0.0 0.1  
Since 1 July snowfall 6.6 17.9  
Snow Depth 0.00 in    
Sea Level Pressure  
Sea Level Pressure 30.15 in    
Wind  
Wind Speed 8 mph (East)    
Max Wind Speed 14 mph    
Max Gust Speed 18 mph    
Visibility 10 miles    
Events      
T = Trace of Precipitation, MM = Missing Value Source: NWS Daily Summary

Daily Weather History Graph

Daily Weather History Graph

Search for Another Location

Airport or City:

Trip Planner

Search our weather history database for the weather conditions in past years. The results will help you decide how hot, cold, wet, or windy it might be!

Date:

Astronomy

Apr. 06, 2012 Rise Set
Actual Time 6:45 AM CDT 7:37 PM CDT
Civil Twilight 6:18 AM CDT 8:04 PM CDT
Nautical Twilight 5:46 AM CDT 8:37 PM CDT
Astronomical Twilight 5:12 AM CDT 9:10 PM CDT
Moon 7:57 PM CDT (4/6) 6:18 AM CDT (4/6)
Length of Visible Light 13h 46m
Length of Day
12h 52m
Full, 100% of the Moon is Illuminated
Apr 6
Full
Apr 6
Full
Apr 13
Last Quarter
Apr 21
New
Apr 29
First Quarter

Hourly Weather History & Observations

Time (CDT) Temp. Windchill Dew Point Humidity Pressure Visibility Wind Dir Wind Speed Gust Speed Precip Events Conditions
12:54 AM 45.0 °F 40.1 °F 37.9 °F 76% 30.08 in 10.0 mi NE 9.2 mph - N/A   Clear
1:54 AM 44.1 °F 39.0 °F 36.0 °F 73% 30.09 in 10.0 mi ENE 9.2 mph - N/A   Clear
2:54 AM 42.8 °F 38.6 °F 33.8 °F 70% 30.10 in 10.0 mi ENE 6.9 mph - N/A   Clear
3:54 AM 42.1 °F 36.6 °F 33.1 °F 70% 30.12 in 10.0 mi NE 9.2 mph - N/A   Clear
4:54 AM 39.9 °F 35.1 °F 32.0 °F 73% 30.13 in 10.0 mi NE 6.9 mph - N/A   Clear
5:54 AM 37.9 °F 30.9 °F 30.9 °F 76% 30.14 in 10.0 mi NE 10.4 mph - N/A   Clear
6:54 AM 37.0 °F 30.4 °F 30.9 °F 79% 30.16 in 10.0 mi NE 9.2 mph - N/A   Clear
7:54 AM 39.0 °F 31.8 °F 32.0 °F 76% 30.19 in 10.0 mi ENE 11.5 mph - N/A   Clear
8:54 AM 43.0 °F 38.2 °F 34.0 °F 71% 30.22 in 10.0 mi East 8.1 mph - 0.01 in   Clear
9:54 AM 46.9 °F - 36.0 °F 66% 30.23 in 10.0 mi East 9.2 mph - 0.02 in   Clear
10:54 AM 51.1 °F - 37.0 °F 59% 30.23 in 10.0 mi ESE 5.8 mph - N/A   Clear
11:54 AM 54.0 °F - 37.9 °F 55% 30.22 in 10.0 mi Variable 5.8 mph - N/A   Clear
12:54 PM 57.0 °F - 37.9 °F 49% 30.20 in 10.0 mi ESE 9.2 mph 16.1 mph N/A   Clear
1:54 PM 59.0 °F - 37.9 °F 46% 30.18 in 10.0 mi ENE 9.2 mph - N/A   Clear
2:54 PM 61.0 °F - 39.0 °F 44% 30.17 in 10.0 mi East 5.8 mph - N/A   Clear
3:54 PM 62.1 °F - 39.0 °F 43% 30.15 in 10.0 mi ENE 8.1 mph - N/A   Clear
4:54 PM 62.1 °F - 36.0 °F 38% 30.13 in 10.0 mi ESE 9.2 mph - N/A   Clear
5:54 PM 61.0 °F - 35.1 °F 38% 30.12 in 10.0 mi SE 9.2 mph - N/A   Clear
6:54 PM 59.0 °F - 36.0 °F 42% 30.12 in 10.0 mi ESE 9.2 mph - N/A   Clear
7:54 PM 55.0 °F - 36.0 °F 49% 30.12 in 10.0 mi ESE 6.9 mph - N/A   Clear
8:54 PM 53.1 °F - 35.1 °F 50% 30.13 in 10.0 mi ESE 8.1 mph - N/A   Clear
9:54 PM 51.1 °F - 35.1 °F 54% 30.14 in 10.0 mi ESE 8.1 mph - N/A   Clear
10:54 PM 50.0 °F - 35.1 °F 57% 30.13 in 10.0 mi ESE 8.1 mph - N/A   Clear
11:54 PM 46.9 °F - 36.0 °F 66% 30.14 in 10.0 mi ESE 6.9 mph - N/A   Clear